When you browse on this site, cookies collect data to enhance your experience and personalize the content and advertising you see.
Visit our Privacy Policy to learn more. By continuing to use the site, you agree to this use of cookies and data.
  • In Hungary
  • List of Countries
  • For 7 days
  • Water Temperature
  • Satellite Maps
  • Weather Map
  • News
  • Weather Widgets
  • user-avatar
    Login

    Hourly Weather Luts'k

    Today, 21 April, Sunday

    Time Temperature Precipitation Wind Pressure Humidity
    00:00 +9°C° 0 mm 2 mps 749 mmHg 65%
    01:00 +8°C° 0 mm 2 mps 748 mmHg 66%
    02:00 +8°C° 0 mm 1 mps 748 mmHg 68%
    03:00 +9°C° 0 mm 1 mps 748 mmHg 68%
    04:00 +9°C° 0 mm 1 mps 748 mmHg 68%
    05:00 +8°C° 0 mm 2 mps 747 mmHg 68%
    06:00 +8°C° 0.1 mm 2 mps 747 mmHg 71%
    07:00 +9°C° 0.1 mm 2 mps 747 mmHg 74%
    08:00 +9°C° 0.1 mm 2 mps 747 mmHg 76%
    09:00 +10°C° 0.4 mm 2 mps 747 mmHg 77%
    10:00 +10°C° 0.4 mm 2 mps 747 mmHg 78%
    11:00 +10°C° 0.4 mm 2 mps 747 mmHg 79%
    12:00 +12°C° 0.4 mm 2 mps 747 mmHg 77%
    13:00 +12°C° 0.4 mm 2 mps 747 mmHg 74%
    14:00 +13°C° 0.4 mm 2 mps 746 mmHg 71%
    15:00 +13°C° 0 mm 2 mps 746 mmHg 69%
    16:00 +13°C° 0 mm 2 mps 746 mmHg 67%
    17:00 +14°C° 0 mm 1 mps 746 mmHg 65%
    18:00 +12°C° 0.1 mm 1 mps 746 mmHg 70%
    19:00 +11°C° 0.1 mm 1 mps 746 mmHg 75%
    20:00 +9°C° 0.1 mm 0 mps 746 mmHg 80%
    21:00 +9°C° 0 mm 0 mps 746 mmHg 82%
    22:00 +9°C° 0 mm 1 mps 746 mmHg 83%
    23:00 +9°C° 0 mm 1 mps 746 mmHg 85%

    Tomorrow, 22 April, Monday

    Time Temperature Precipitation Wind Pressure Humidity
    00:00 +9°C° 0 mm 1 mps 746 mmHg 87%
    01:00 +7°C° 0 mm 2 mps 746 mmHg 89%
    02:00 +7°C° 0 mm 2 mps 746 mmHg 91%
    03:00 +7°C° 0 mm 3 mps 747 mmHg 91%
    04:00 +7°C° 0 mm 4 mps 747 mmHg 91%
    05:00 +7°C° 0 mm 4 mps 747 mmHg 91%
    06:00 +7°C° 0 mm 5 mps 748 mmHg 86%
    07:00 +8°C° 0 mm 6 mps 748 mmHg 81%
    08:00 +8°C° 0 mm 7 mps 749 mmHg 77%
    09:00 +10°C° 0 mm 7 mps 749 mmHg 68%
    10:00 +11°C° 0 mm 8 mps 750 mmHg 59%
    11:00 +12°C° 0 mm 8 mps 750 mmHg 50%
    12:00 +13°C° 0 mm 8 mps 750 mmHg 47%
    13:00 +13°C° 0 mm 8 mps 750 mmHg 45%
    14:00 +15°C° 0 mm 7 mps 750 mmHg 43%
    15:00 +14°C° 0 mm 7 mps 750 mmHg 44%
    16:00 +14°C° 0 mm 6 mps 750 mmHg 46%
    17:00 +13°C° 0 mm 6 mps 750 mmHg 47%
    18:00 +11°C° 0 mm 6 mps 751 mmHg 50%
    19:00 +10°C° 0 mm 5 mps 751 mmHg 53%
    20:00 +9°C° 0 mm 5 mps 751 mmHg 56%
    21:00 +8°C° 0 mm 5 mps 751 mmHg 58%
    22:00 +8°C° 0 mm 5 mps 751 mmHg 60%
    23:00 +7°C° 0 mm 5 mps 752 mmHg 62%

    Day after tomorrow, 23 April, Tuesday

    Time Temperature Precipitation Wind Pressure Humidity
    00:00 +7°C° 0 mm 5 mps 752 mmHg 63%
    01:00 +6°C° 0 mm 5 mps 752 mmHg 64%
    02:00 +6°C° 0 mm 5 mps 752 mmHg 65%
    03:00 +6°C° 0 mm 5 mps 752 mmHg 66%
    04:00 +6°C° 0 mm 5 mps 752 mmHg 67%
    05:00 +5°C° 0 mm 5 mps 752 mmHg 67%
    06:00 +7°C° 0 mm 6 mps 752 mmHg 63%
    07:00 +8°C° 0 mm 7 mps 752 mmHg 59%
    08:00 +9°C° 0 mm 8 mps 752 mmHg 54%
    09:00 +11°C° 0 mm 9 mps 752 mmHg 50%
    10:00 +12°C° 0 mm 9 mps 752 mmHg 47%
    11:00 +13°C° 0 mm 10 mps 752 mmHg 43%
    12:00 +14°C° 0 mm 10 mps 752 mmHg 42%
    13:00 +14°C° 0 mm 10 mps 751 mmHg 42%
    14:00 +16°C° 0 mm 9 mps 751 mmHg 42%
    15:00 +16°C° 0 mm 9 mps 751 mmHg 43%
    16:00 +16°C° 0 mm 8 mps 751 mmHg 45%
    17:00 +16°C° 0 mm 8 mps 751 mmHg 47%
    18:00 +14°C° 0 mm 7 mps 750 mmHg 51%
    19:00 +13°C° 0 mm 6 mps 750 mmHg 55%
    20:00 +10°C° 0 mm 5 mps 750 mmHg 58%
    21:00 +10°C° 0 mm 6 mps 750 mmHg 59%
    22:00 +10°C° 0 mm 6 mps 750 mmHg 60%
    23:00 +9°C° 0 mm 6 mps 751 mmHg 61%

    24 April, Wednesday

    Time Temperature Precipitation Wind Pressure Humidity
    00:00 +9°C° 0 mm 6 mps 751 mmHg 62%
    01:00 +8°C° 0 mm 6 mps 750 mmHg 62%
    02:00 +8°C° 0 mm 6 mps 750 mmHg 63%
    03:00 +8°C° 0 mm 7 mps 750 mmHg 63%
    04:00 +6°C° 0 mm 7 mps 750 mmHg 63%
    05:00 +6°C° 0 mm 7 mps 750 mmHg 62%
    06:00 +7°C° 0 mm 8 mps 750 mmHg 60%
    07:00 +8°C° 0 mm 9 mps 751 mmHg 58%
    08:00 +10°C° 0 mm 9 mps 751 mmHg 55%
    09:00 +11°C° 0 mm 9 mps 751 mmHg 54%
    10:00 +12°C° 0 mm 9 mps 751 mmHg 52%
    11:00 +15°C° 0 mm 9 mps 751 mmHg 50%
    12:00 +16°C° 0 mm 9 mps 751 mmHg 50%
    13:00 +16°C° 0 mm 9 mps 751 mmHg 49%
    14:00 +17°C° 0 mm 9 mps 751 mmHg 49%
    15:00 +17°C° 0 mm 8 mps 750 mmHg 51%
    16:00 +17°C° 0 mm 8 mps 750 mmHg 52%
    17:00 +17°C° 0 mm 8 mps 750 mmHg 54%
    18:00 +16°C° 0 mm 7 mps 750 mmHg 58%
    19:00 +14°C° 0 mm 6 mps 750 mmHg 61%
    20:00 +13°C° 0 mm 5 mps 750 mmHg 65%
    21:00 +13°C° 0 mm 5 mps 750 mmHg 66%
    22:00 +12°C° 0 mm 5 mps 750 mmHg 67%
    23:00 +11°C° 0 mm 6 mps 750 mmHg 67%

    25 April, Thursday

    Time Temperature Precipitation Wind Pressure Humidity
    00:00 +11°C° 0 mm 6 mps 750 mmHg 68%
    01:00 +10°C° 0 mm 6 mps 750 mmHg 69%
    02:00 +10°C° 0 mm 6 mps 750 mmHg 69%
    03:00 +10°C° 0 mm 6 mps 750 mmHg 71%
    04:00 +10°C° 0 mm 5 mps 750 mmHg 72%
    05:00 +9°C° 0 mm 5 mps 750 mmHg 73%
    06:00 +10°C° 0 mm 6 mps 750 mmHg 71%
    07:00 +11°C° 0 mm 6 mps 750 mmHg 69%
    08:00 +11°C° 0 mm 6 mps 750 mmHg 66%
    09:00 +14°C° 0 mm 6 mps 750 mmHg 63%
    10:00 +15°C° 0 mm 6 mps 750 mmHg 59%
    11:00 +17°C° 0 mm 7 mps 750 mmHg 56%
    12:00 +18°C° 0 mm 7 mps 749 mmHg 54%
    13:00 +20°C° 0 mm 7 mps 749 mmHg 53%
    14:00 +21°C° 0 mm 7 mps 749 mmHg 52%
    15:00 +21°C° 0 mm 7 mps 749 mmHg 53%
    16:00 +21°C° 0 mm 6 mps 748 mmHg 54%
    17:00 +21°C° 0 mm 6 mps 748 mmHg 55%
    18:00 +19°C° 0 mm 6 mps 748 mmHg 59%
    19:00 +17°C° 0 mm 5 mps 748 mmHg 64%
    20:00 +15°C° 0 mm 4 mps 748 mmHg 68%
    21:00 +15°C° 0 mm 4 mps 747 mmHg 69%
    22:00 +14°C° 0 mm 5 mps 747 mmHg 70%
    23:00 +14°C° 0 mm 5 mps 747 mmHg 70%

    26 April, Friday

    Time Temperature Precipitation Wind Pressure Humidity
    00:00 +13°C° 0 mm 4 mps 747 mmHg 73%
    01:00 +13°C° 0 mm 4 mps 747 mmHg 75%
    02:00 +12°C° 0 mm 4 mps 747 mmHg 77%
    03:00 +12°C° 0 mm 4 mps 747 mmHg 79%
    04:00 +11°C° 0 mm 4 mps 747 mmHg 80%
    05:00 +11°C° 0 mm 3 mps 746 mmHg 81%
    06:00 +12°C° 0 mm 4 mps 746 mmHg 77%
    07:00 +14°C° 0 mm 4 mps 746 mmHg 73%
    08:00 +15°C° 0 mm 4 mps 746 mmHg 70%
    09:00 +18°C° 0 mm 4 mps 746 mmHg 65%
    10:00 +20°C° 0 mm 4 mps 746 mmHg 61%
    11:00 +22°C° 0 mm 4 mps 746 mmHg 57%
    12:00 +23°C° 0 mm 4 mps 745 mmHg 53%
    13:00 +25°C° 0 mm 4 mps 745 mmHg 49%
    14:00 +26°C° 0 mm 5 mps 745 mmHg 45%
    15:00 +26°C° 0 mm 4 mps 744 mmHg 47%
    16:00 +26°C° 0 mm 4 mps 744 mmHg 50%
    17:00 +25°C° 0 mm 4 mps 744 mmHg 52%
    18:00 +22°C° 0.1 mm 4 mps 744 mmHg 57%
    19:00 +20°C° 0.1 mm 4 mps 744 mmHg 62%
    20:00 +18°C° 0.1 mm 4 mps 744 mmHg 68%
    21:00 +17°C° 0 mm 4 mps 744 mmHg 69%
    22:00 +15°C° 0 mm 4 mps 744 mmHg 69%
    23:00 +15°C° 0 mm 4 mps 744 mmHg 70%
    Show more